[[{"header":{"parameterUnit":"m.s-1","parameterCategory":1,"la1":30.2991,"la2":30.254,"lo1":-89.0895,"lo2":-89.0444,"dy":0.0017,"dx":0.0017,"nx":28,"ny":28,"refTime":"2024-08-31T09:00:00:Z","depth":0,"parameterNumber":2,"parameterNumberName":"U-component_of_WINDS"},"data":[0,0,0,0,0,0,0,0,0,0,0,0,0,0,0,0,0,0,0,0,0,0,0,0,0,0,0,0,0,0,0,0,0,0,0,0,0,0,0,0,0,0,0,0,0,0,0,0,0,0,0,0,0,0,0,0,0,0,-1.8015,-1.8015,0,-1.8025,-1.8025,-1.8025,-1.7923,-1.792,-1.7917,-1.7914,-1.7926,-1.7929,-1.7932,0,0,0,0,0,0,0,0,0,0,0,0,0,-1.7908,-1.791,-1.8015,-1.8015,-1.8015,-1.8025,-1.8025,-1.8025,-1.7923,-1.792,-1.7916,-1.7913,-1.7925,-1.7928,-1.7932,0,0,0,0,0,0,0,0,0,0,0,0,0,-1.794,-1.7911,-1.8015,-1.7965,-1.7961,-1.8025,-1.8025,-1.8025,-1.7924,-1.792,-1.7915,-1.7911,-1.7924,-1.7928,-1.7932,-1.8044,0,0,-1.7946,-1.7948,0,0,0,0,0,0,0,0,-1.7938,-1.7944,-1.7972,-1.7969,-1.7964,-1.7968,-1.7991,-1.8031,-1.7925,-1.7938,-1.7914,-1.7909,-1.7943,-1.7946,-1.7957,-1.8045,-1.8045,-1.7946,-1.7949,-1.7951,-1.7952,0,0,0,0,0,0,0,-1.7936,-1.7943,-1.8018,-1.7973,-1.7968,-1.7943,-1.7943,-1.7998,-1.7964,-1.7936,-1.7929,-1.7932,-1.794,-1.7953,-1.7957,-1.8046,-1.7946,-1.795,-1.7953,-1.7955,-1.8225,-1.8229,0,0,0,0,0,0,-1.794,-1.7942,-1.8018,-1.8019,-1.794,-1.7948,-1.7948,-1.7971,-1.7963,-1.7958,-1.7935,-1.7927,-1.7948,-1.7952,-1.7957,-1.8087,-1.7951,-1.7955,-1.7958,-1.822,-1.8226,-1.8231,0,0,0,0,0,0,-1.7939,-1.7948,-1.8018,-1.7978,-1.7985,-1.7954,-1.7981,-1.7973,-1.7986,-1.7962,-1.7956,-1.7955,-1.7945,-1.7951,-1.8023,-1.8086,-1.7957,-1.7961,-1.8215,-1.8222,-1.8228,-1.8349,0,0,0,0,0,0,-1.7936,-1.7948,-1.799,-1.798,-1.7988,-1.8084,-1.7985,-1.7977,-1.7994,-1.7983,-1.7979,-1.7974,-1.7942,-1.8017,-1.8028,-1.809,-1.7964,-1.8209,-1.8218,-1.8226,-1.8339,-1.8359,-1.8376,0,0,0,0,0,-1.7933,-1.8024,-1.7993,-1.8003,-1.804,-1.8088,-1.8093,-1.8053,-1.7999,-1.8041,-1.8026,-1.7974,-1.8077,-1.8025,-1.8036,-1.8101,-1.8205,-1.8216,-1.8226,-1.8331,-1.8355,-1.8376,0,0,0,0,0,0,-1.8044,-1.8022,-1.7987,-1.8078,-1.8086,-1.8071,-1.8123,-1.808,-1.8103,-1.8092,-1.8042,-1.8042,-1.8123,-1.8119,-1.8061,-1.8208,-1.8132,-1.8145,-1.8208,-1.8231,-1.8249,-1.8249,-1.7968,0,0,0,0,0,-1.8079,-1.812,-1.8098,-1.8181,-1.8186,-1.8154,-1.8174,-1.8143,-1.8148,-1.8151,-1.8141,-1.8149,-1.8183,-1.8207,-1.8237,-1.8338,-1.8336,-1.8388,-1.8406,-1.8421,-1.8433,-1.8486,-1.8509,-1.8264,-1.8264,-1.8264,0,0,-1.8152,-1.8145,-1.8174,-1.8203,-1.8205,-1.8249,-1.8158,-1.8208,-1.824,-1.8159,-1.8227,-1.822,-1.8225,-1.8313,-1.8351,-1.8312,-1.85,-1.8434,-1.8446,-1.845,-1.8499,-1.8522,-1.8543,-1.8271,-1.827,-1.8269,0,0,-1.8307,-1.8306,-1.8375,-1.8378,-1.8382,-1.836,-1.8377,-1.8368,-1.836,-1.8427,-1.8367,-1.8404,-1.8464,-1.847,-1.8482,-1.8639,-1.8592,-1.865,-1.8746,-1.8798,-1.8818,-1.8835,-1.8891,-1.8912,-1.8662,-1.8662,-1.8662,0,-1.8398,-1.8461,-1.8415,-1.8469,-1.8484,-1.8412,-1.8481,-1.8487,-1.8501,-1.8513,-1.8469,-1.8542,-1.854,-1.8628,-1.8666,-1.8678,-1.8695,-1.865,-1.8819,-1.8835,-1.885,-1.8903,-1.8925,-1.8669,-1.8668,-1.8667,-1.8667,0,-1.8572,-1.8616,-1.8671,-1.8686,-1.8706,-1.8768,-1.8732,-1.8758,-1.8725,-1.8708,-1.8777,-1.8772,-1.88,-1.8818,-1.8787,-1.8902,-1.8878,-1.8827,-1.8749,-1.8881,-1.893,-1.895,-1.8679,-1.8676,-1.8674,-1.8673,0,0,-1.8799,-1.8787,-1.8808,-1.8813,-1.8812,-1.8846,-1.8904,-1.893,-1.8954,-1.8965,-1.9013,-1.9065,-1.9017,-1.903,-1.8998,-1.9044,-1.9169,-1.8988,-1.8987,-1.9022,-1.9296,-1.9335,-1.9359,-1.9137,-1.9141,-1.9144,-1.9295,0,-1.895,-1.9048,-1.9009,-1.9111,-1.9151,-1.9083,-1.9133,-1.9138,-1.9123,-1.9155,-1.9139,-1.9176,-1.9111,-1.9118,-1.916,-1.9145,-1.9224,-1.9133,-1.9182,-1.9184,-1.9183,-1.9384,-1.9426,-1.9569,-1.9314,-1.9318,-1.932,0,-1.9141,-1.916,-1.9266,-1.9256,-1.9272,-1.9318,-1.9339,-1.937,-1.9374,-1.936,-1.9374,-1.9332,-1.9388,-1.931,-1.9387,-1.9326,-1.9343,-1.9339,-1.9343,-1.9347,-1.9261,-1.9394,-1.9613,-1.9635,-1.935,-1.9347,-1.9345,0,-1.9296,-1.9348,-1.9418,-1.9425,-1.9416,-1.945,-1.9448,-1.9447,-1.9466,-1.9484,-1.9495,-1.952,-1.9534,-1.9554,-1.952,-1.9466,-1.9602,-1.9521,-1.9592,-1.9593,-1.9624,-1.9623,-1.985,-1.9635,-1.9634,-1.9634,-1.9634,0,-1.947,-1.9538,-1.9488,-1.9531,-1.9604,-1.9558,-1.9632,-1.9622,-1.9622,-1.9662,-1.9604,-1.9643,-1.9595,-1.9629,-1.9603,-1.9671,-1.9677,-1.9668,-1.966,-1.9673,-1.9675,-1.9685,-1.9674,-1.964,-1.9638,-1.9637,-1.9636,0,-1.9657,-1.9626,-1.9698,-1.9683,-1.9681,-1.9736,-1.9723,-1.9762,-1.9743,-1.9794,-1.9803,-1.9773,-1.9811,-1.9778,-1.9814,-1.9796,-1.9886,-1.9864,-1.9885,-1.9879,-1.9952,-1.9946,-2.0195,-2.0225,-1.999,-1.9992,-1.9994,0,-1.977,-1.9821,-1.9811,-1.9833,-1.9835,-1.9872,-1.989,-1.9846,-1.9867,-1.9875,-1.9914,-1.9946,-1.9969,-2.0032,-2.0013,-2.0041,-2.0019,-2.0104,-2.0023,-2.0035,-2.0021,-2.0019,-2.0023,-2.0121,-2.0124,-2.0126,-2.0128,0,-1.9975,-1.9957,-1.9985,-2.0008,-2.0031,-2.0047,-2.0059,-2.0081,-2.0035,-2.0062,-2.0099,-2.0118,-2.0154,-2.0187,-2.0208,-2.0206,-2.016,-2.0153,-2.0171,-2.0186,-2.0196,-2.0192,-1.9931,-2.0148,-2.0146,-2.0145,-2.0144,-2.0143,-2.0129,-2.017,-2.017,-2.0203,-2.0207,-2.0219,-2.0255,-2.0239,-2.0269,-2.0295,-2.0267,-2.0313,-2.0315,-2.0338,-2.0341,-2.0376,-2.0341,-2.0367,-2.0373,-2.0381,-2.0392,-2.019,-2.038,-2.0379,-2.0379,-2.0378,-2.0378,0,-2.0331,-2.0327,-2.0358,-2.0375,-2.0402,-2.0355,-2.0365,-2.039,-2.0431,-2.0436,-2.046,-2.0503,-2.0534,-2.0518,-2.0545,-2.0576,-2.0556,-2.0585,-2.0582,-2.0583,-2.0422,-2.0403,-2.0601,-2.0601,-2.0601,-2.0601,-2.0601,-2.06,-2.0439,-2.0507,-2.0488,-2.0557,-2.0552,-2.0596,-2.0606,-2.0617,-2.062,-2.0671,-2.0696,-2.0685,-2.0681,-2.0708,-2.0734,-2.0729,-2.0742,-2.0779,-2.0766,-2.0616,-2.0594,-2.0573,-2.0556,-2.0782,-2.0782,-2.0924,-2.0925,-2.0926]},{"header":{"parameterUnit":"m.s-1","parameterCategory":1,"la1":30.2991,"la2":30.254,"lo1":-89.0895,"lo2":-89.0444,"dy":0.0017,"dx":0.0017,"nx":28,"ny":28,"refTime":"2024-08-31T09:00:00:Z","depth":0,"parameterNumber":3,"parameterNumberName":"V-component_of_WINDS"},"data":[0,0,0,0,0,0,0,0,0,0,0,0,0,0,0,0,0,0,0,0,0,0,0,0,0,0,0,0,0,0,0,0,0,0,0,0,0,0,0,0,0,0,0,0,0,0,0,0,0,0,0,0,0,0,0,0,0,0,-1.408,-1.408,0,-1.4116,-1.4117,-1.4117,-1.4151,-1.4151,-1.4152,-1.4152,-1.4188,-1.4188,-1.4189,0,0,0,0,0,0,0,0,0,0,0,0,0,-1.4035,-1.4036,-1.4079,-1.408,-1.408,-1.4116,-1.4117,-1.4117,-1.4151,-1.4152,-1.4152,-1.4152,-1.4188,-1.4188,-1.4189,0,0,0,0,0,0,0,0,0,0,0,0,0,-1.4061,-1.4036,-1.4079,-1.4102,-1.4104,-1.4116,-1.4117,-1.4118,-1.4151,-1.4152,-1.4152,-1.4153,-1.4187,-1.4188,-1.4189,-1.4182,0,0,-1.4192,-1.4192,0,0,0,0,0,0,0,0,-1.406,-1.4063,-1.4098,-1.41,-1.4103,-1.413,-1.4114,-1.4139,-1.4151,-1.4133,-1.4152,-1.4153,-1.4168,-1.417,-1.4176,-1.4184,-1.4185,-1.4192,-1.4192,-1.4193,-1.4193,0,0,0,0,0,0,0,-1.4058,-1.4062,-1.4094,-1.4098,-1.4101,-1.4109,-1.4113,-1.4119,-1.4146,-1.4135,-1.4137,-1.4141,-1.4169,-1.4175,-1.4177,-1.4186,-1.4192,-1.4192,-1.4193,-1.4193,-1.4187,-1.4187,0,0,0,0,0,0,-1.4053,-1.406,-1.4093,-1.4095,-1.4082,-1.4109,-1.4114,-1.412,-1.4146,-1.4151,-1.4141,-1.4143,-1.4173,-1.4176,-1.4178,-1.417,-1.4193,-1.4193,-1.4194,-1.4188,-1.4187,-1.4186,0,0,0,0,0,0,-1.4052,-1.4056,-1.4091,-1.4078,-1.4083,-1.4109,-1.4116,-1.4121,-1.4127,-1.4151,-1.4156,-1.4142,-1.4174,-1.4177,-1.4181,-1.4172,-1.4194,-1.4195,-1.4189,-1.4188,-1.4187,-1.4155,0,0,0,0,0,0,-1.4051,-1.4055,-1.4053,-1.4078,-1.4084,-1.4094,-1.4116,-1.4121,-1.4128,-1.4131,-1.4153,-1.4157,-1.4175,-1.4179,-1.4181,-1.4174,-1.4195,-1.419,-1.4188,-1.4187,-1.4157,-1.4153,-1.415,0,0,0,0,0,-1.4049,-1.4043,-1.4053,-1.4057,-1.4082,-1.4093,-1.4097,-1.4117,-1.4127,-1.4125,-1.4141,-1.4157,-1.4173,-1.4179,-1.4182,-1.4174,-1.419,-1.4189,-1.4187,-1.4158,-1.4154,-1.415,0,0,0,0,0,0,-1.4016,-1.4047,-1.4058,-1.406,-1.4074,-1.4099,-1.4097,-1.4112,-1.4122,-1.4124,-1.4149,-1.4153,-1.4154,-1.4165,-1.4171,-1.4168,-1.4184,-1.4183,-1.4161,-1.4156,-1.4153,-1.415,-1.4196,0,0,0,0,0,-1.4009,-1.4016,-1.4042,-1.4041,-1.4048,-1.4071,-1.4076,-1.4091,-1.4106,-1.4112,-1.4128,-1.4141,-1.4149,-1.4153,-1.4162,-1.4159,-1.4163,-1.4155,-1.4151,-1.4148,-1.4146,-1.4144,-1.414,-1.4181,-1.4182,-1.4182,0,0,-1.3995,-1.4012,-1.4015,-1.4035,-1.4048,-1.4053,-1.4076,-1.4081,-1.4085,-1.4112,-1.4116,-1.4128,-1.4144,-1.4144,-1.4145,-1.4153,-1.4136,-1.4146,-1.4144,-1.4144,-1.4142,-1.4138,-1.4134,-1.418,-1.4181,-1.4181,0,0,-1.3971,-1.3986,-1.3986,-1.3998,-1.4016,-1.4032,-1.4032,-1.4054,-1.4063,-1.4068,-1.4088,-1.4093,-1.4106,-1.4117,-1.4124,-1.4103,-1.4117,-1.4105,-1.4086,-1.4083,-1.4079,-1.4077,-1.4067,-1.4064,-1.4103,-1.4103,-1.4103,0,-1.3951,-1.3961,-1.3984,-1.3988,-1.3995,-1.4021,-1.402,-1.403,-1.405,-1.4054,-1.4064,-1.4081,-1.4093,-1.4095,-1.409,-1.4095,-1.4094,-1.4102,-1.4078,-1.4076,-1.4073,-1.4065,-1.4062,-1.4102,-1.4102,-1.4102,-1.4102,0,-1.3934,-1.3941,-1.3939,-1.3957,-1.3965,-1.3966,-1.3988,-1.3993,-1.4006,-1.402,-1.4024,-1.404,-1.4052,-1.4053,-1.4067,-1.4056,-1.4061,-1.4074,-1.409,-1.4067,-1.406,-1.4057,-1.4099,-1.41,-1.41,-1.4101,0,0,-1.3891,-1.3922,-1.3921,-1.3929,-1.3951,-1.3956,-1.3958,-1.397,-1.3972,-1.3985,-1.3987,-1.3997,-1.4009,-1.4017,-1.4032,-1.4029,-1.4009,-1.4043,-1.4043,-1.4034,-1.3997,-1.3986,-1.3982,-1.402,-1.4019,-1.4019,-1.3995,0,-1.387,-1.3876,-1.3896,-1.3896,-1.3901,-1.3925,-1.3926,-1.3939,-1.3952,-1.3958,-1.3972,-1.3978,-1.3994,-1.3999,-1.3998,-1.4012,-1.4002,-1.4014,-1.4019,-1.4019,-1.4013,-1.3978,-1.3967,-1.3943,-1.3992,-1.3992,-1.3991,0,-1.3846,-1.3858,-1.3857,-1.3878,-1.3881,-1.3882,-1.3894,-1.3899,-1.3914,-1.3923,-1.3931,-1.3948,-1.395,-1.3966,-1.3968,-1.3976,-1.3979,-1.3986,-1.3986,-1.3986,-1.4003,-1.3976,-1.3937,-1.3932,-1.3987,-1.3988,-1.3988,0,-1.3813,-1.3828,-1.383,-1.3836,-1.386,-1.386,-1.387,-1.3885,-1.3891,-1.3901,-1.3904,-1.3914,-1.3919,-1.3926,-1.3944,-1.3954,-1.3944,-1.3962,-1.395,-1.395,-1.3946,-1.3946,-1.3906,-1.3951,-1.3951,-1.3951,-1.3951,0,-1.3787,-1.3785,-1.3815,-1.3815,-1.3814,-1.3837,-1.3834,-1.3846,-1.386,-1.3862,-1.3884,-1.3885,-1.391,-1.3914,-1.3928,-1.3927,-1.393,-1.3936,-1.394,-1.3933,-1.3932,-1.3935,-1.3936,-1.395,-1.395,-1.395,-1.395,0,-1.3749,-1.3769,-1.3771,-1.3794,-1.38,-1.3797,-1.3816,-1.3817,-1.3831,-1.3834,-1.3836,-1.3858,-1.3863,-1.3883,-1.3893,-1.3903,-1.3896,-1.3904,-1.3891,-1.3894,-1.3881,-1.3881,-1.3839,-1.3834,-1.3884,-1.3883,-1.3883,0,-1.373,-1.3729,-1.3752,-1.3755,-1.3764,-1.377,-1.3775,-1.3797,-1.3802,-1.3818,-1.3816,-1.3824,-1.3831,-1.3839,-1.3855,-1.3863,-1.387,-1.3855,-1.3871,-1.3865,-1.3868,-1.3867,-1.3866,-1.3851,-1.385,-1.385,-1.3849,0,-1.3694,-1.3703,-1.3711,-1.3721,-1.3727,-1.3737,-1.3747,-1.3748,-1.3773,-1.3777,-1.3783,-1.3789,-1.38,-1.3806,-1.3816,-1.3826,-1.3841,-1.3844,-1.3842,-1.3835,-1.3827,-1.3829,-1.388,-1.3845,-1.3845,-1.3846,-1.3846,-1.3846,-1.3664,-1.3664,-1.3679,-1.3686,-1.3696,-1.3705,-1.3707,-1.3721,-1.3727,-1.3738,-1.375,-1.3755,-1.3768,-1.3783,-1.3791,-1.3794,-1.3803,-1.3799,-1.3798,-1.3797,-1.3793,-1.3827,-1.3796,-1.3796,-1.3796,-1.3797,-1.3797,0,-1.3627,-1.3638,-1.3645,-1.3658,-1.3664,-1.3679,-1.3691,-1.3693,-1.3697,-1.3709,-1.3715,-1.3722,-1.3728,-1.3744,-1.3752,-1.3751,-1.3758,-1.3752,-1.3752,-1.3753,-1.3786,-1.3786,-1.3746,-1.3746,-1.3746,-1.3746,-1.3746,-1.3746,-1.3609,-1.3609,-1.362,-1.3625,-1.3636,-1.3641,-1.3646,-1.3654,-1.3663,-1.3669,-1.3675,-1.3686,-1.3698,-1.3707,-1.3713,-1.3718,-1.3718,-1.371,-1.3716,-1.3746,-1.3751,-1.3756,-1.3756,-1.371,-1.371,-1.3683,-1.3683,-1.3683]}]]